SCP
0 0 0 0 0 0 0 0 0 0 0 0 0 0 0 0 0 -0 -0 -0 0 -0 -0 -0 -0 -0 -0 -0 -0 -0 -0 -0 -0 -0 0 0 -0 -0 -0 -0 -0 -0 -0 -0 -0 -0 -0 -0 -0
0 0 0 0 0 0 0 0 0 0 0 0 0 0 0 0 0 0 0 -0 0 -0 0 -0 -0 -0 -0 -0 -0 -0 -0 -0 -0 -0 0 0 -0 -0 -0 -0 -0 -0 -0 -0 -0 -0 -0 -0 -0
0 0 0 0 0 0 0 0 0 0 0 0 0 0 0 0 0 0 0 0 0 0 0 0 -0 -0 -0 -0 -0 -0 -0 -0 -0 -0 -0 -0 -0 -0 -0 -0 -0 -0 -0 -0 -0 -0 -0 -0 -0
0 0 0 0 0 0 0 0 0 0 0 0 0 0 0 0 0 0 0 0 0 0 0 0 -0 -0 -0 -0 -0 -0 -0 -0 -0 -0 -0 -0 -0 -0 -0 -0 -0 -0 -0 -0 -0 0 0 -0 -0
0 0 0 0 0 0 0 0 0 0 0 0 0 0 0 0 0 0 0 0 0 0 0 0 0 0 -0 -0 -0 -0 -0 -0 -0 -0 -0 -0 -0 -0 -0 -0 -0 -0 0 -0 0 0 0 0 0
0 0 0 0 0 0 0 0 0 0 0 0 0 0 0 0 0 0 0 0 0 0 0 0 0 0 0 0 -0 -0 -0 -0 -0 -0 -0 -0 -0 -0 -0 -0 0 0 0 0 0 0 0 0 0
0 0 0 0 0 0 0 0 0 0 0 0 0 0 0 0 0 0 0 0 0 0 0 0 0 0 0 0 0 0 0 -0 -0 -0 -0 0 0 0 0 0 0 0 0 0 0 0 0 0 0
0 0 0 0 0 0 0 0 0 0 0 0 0 0 0 0 0 0 0 0 0 0 0 0 0 0 0 0 0 0 0 0 0 0 0 0 0 -0 0 0 0 0 0 0 0 0 0 0 0
0 0 0 0 0 0 0 0 0 0 0 0 0 0 0 0 0 0 0 0 0 0 0 0 0 0 0 0 0 0 0 0 0 0 0 0 0 0 0 0 0 0 0 0 0 0 0 0 -0
0 0 0 0 0 0 0 0 0 0 0 0 0 0 0 0 0 0 0 0 0 0 0 0 0 0 0 0 0 0 0 0 0 0 0 0 0 0 0 0 0 0 0 0 0 0 0 0 0
0 0 0 0 0 0 -0 -0 0 0 0 0 0 0 0 0 0 0 0 0 0 0 0 0 0 0 0 0 0 0 0 0 0 0 0 0 0 0 0 0 0 0 0 0 0 0 0 0 0
0 0 0 0 0 0 0 -0 0 0 0 0 0 0 0 0 0 0 0 0 0 0 0 0 0 0 0 0 0 0 0 0 0 0 0 0 0 0 0 0 0 0 0 0 0 0 0 0 0
0 0 0 0 0 0 0 0 -0 0 0 0 0 0 0 0 0 0 0 0 0 0 0 0 0 0 0 0 0 0 0 0 0 0 0 0 0 0 0 0 0 0 0 0 0 0 0 0 0
0 0 0 0 0 0 0 0 0 -0 0 0 0 0 0 0 0 0 0 0 0 0 0 0 0 0 0 0 0 0 0 0 0 0 0 0 0 0 0 0 0 0 0 0 0 0 0 0 0
0 0 0 0 0 0 0 0 -0 -0 -0 0 0 0 0 0 0 0 0 0 0 0 0 0 0 0 0 0 0 0 0 0 0 0 0 0 0 0 0 0 0 0 0 0 0 0 0 0 0
0 0 0 0 0 0 -0 -0 0 0 -0 0 0 0 0 0 0 0 0 0 0 0 0 0 0 0 0 0 0 0 0 0 0 0 0 0 0 0 0 0 0 0 0 0 0 0 0 0 0
0 0 0 0 0 -0 0 -0 0 0 0 0 0 0 0 0 0 0 0 0 0 0 0 0 0 0 0 0 0 0 0 0 0 0 0 0 0 0 0 0 0 0 0 0 0 0 0 0 0
0 0 0 0 0 0 0 0 0 0 0 0 0 0 0 0 0 0 0 0 0 0 0 0 0 0 0 0 0 0 0 0 0 0 0 0 0 0 0 0 0 0 0 0 0 0 0 0 0
0 0 0 0 0 0 0 0 -0 -0 -0 0 -0 0 0 0 0 0 0 0 0 0 0 0 0 0 0 0 0 0 0 0 0 0 0 0 0 0 0 0 0 0 0 0 0 0 0 0 0
0 0 0 0 0 0 0 0 -0 -0 -0 -0 0 0 0 0 0 0 0 0 0 0 0 0 0 0 0 0 0 0 0 0 0 0 0 0 0 0 0 0 0 0 0 0 0 0 0 0 0
0 0 0 0 0 0 0 -0 0 0 0 0 0 0 0 0 0 0 0 0 0 0 0 0 0 0 0 0 0 0 0 0 0 0 0 0 0 0 0 0 0 0 0 0 0 0 0 0 0
0 0 0 0 0 0 0 0 0 0 0 0 0 0 0 0 0 0 0 0 0 0 0 0 0 0 0 0 0 0 0 0 0 0 0 0 0 0 0 0 0 0 0 0 0 0 0 0 0
0 0 0 0 0 0 0 0 0 -0 0 0 0 -0 0 0 0 0 0 0 0 0 0 0 0 0 0 0 0 0 0 0 0 0 0 0 0 0 0 0 0 0 0 0 0 0 0 0 0
0 0 0 0 0 0 0 0 0 0 0 0 0 0 -0 0 0 0 0 0 0 0 0 0 0 0 0 0 0 0 0 0 0 0 0 0 0 0 0 0 0 0 0 0 0 0 0 0 0
0 0 0 0 0 0 0 0 0 0 0 0 0 -0 -0 -0 0 0 0 0 0 0 0 0 0 0 0 0 0 0 0 0 0 0 0 0 0 0 0 0 0 0 0 0 0 0 0 0 0
0 0 0 0 0 0 0 0 0 -0 -0 0 -0 -0 -0 0 0 0 0 0 0 0 0 0 0 0 0 0 0 0 0 0 0 0 0 0 0 0 0 0 0 0 0 0 0 0 0 0 0
0 0 0 0 0 0 0 0 0 -0 0 0 0 -0 -0 -0 -0 0 0 0 0 0 0 0 0 0 0 0 0 0 0 0 0 0 0 0 0 0 0 0 0 0 0 0 0 0 0 0 0
0 0 0 0 0 0 0 0 0 0 -0 -0 -0 -0 -0 0 0 -0 0 0 0 0 0 0 0 0 0 0 0 0 0 0 0 0 0 0 0 0 0 0 0 0 0 0 0 0 0 0 0
0 0 0 0 0 0 0 0 0 0 0 0 -0 0 -0 0 -0 0 -0 0 0 0 0 0 0 0 0 0 0 0 0 0 0 0 0 0 0 0 0 0 0 0 0 0 -0 -0 -0 -0 0
0 0 0 0 0 0 0 0 0 0 0 0 0 0 0 -0 0 0 0 0 0 0 0 0 0 0 0 0 0 0 0 0 0 0 0 -0 0 0 0 0 0 0 0 0 0 0 0 0 0
Wind_Speed_500mb
19 19 18 3 7 9 6 4 4 15 14 9 6 9 10 6 8 7 8 34 37 54 58 51 46 39 34 32 33 37 34 34 32 33 44 40 30 27 25 19 16 11 12 10 5 5 10 17 20
17 14 8 2 8 4 6 7 10 6 11 2 3 3 3 2 3 4 24 34 44 49 55 53 46 41 36 33 41 45 41 36 35 33 38 31 25 22 21 15 13 12 10 9 12 11 14 16 16
13 10 4 6 6 8 6 4 9 23 13 6 8 5 1 0 5 15 14 30 54 50 50 50 46 41 38 37 45 40 39 34 31 34 39 31 27 24 14 13 13 13 10 13 16 16 16 14 12
3 1 6 6 8 7 6 9 8 22 15 12 5 7 2 3 1 18 20 30 55 50 48 45 46 42 40 43 44 40 35 27 26 32 44 34 29 18 13 10 10 12 13 16 16 15 14 13 10
3 5 5 2 6 6 7 15 21 10 15 14 13 7 5 1 8 16 22 27 51 50 48 42 40 42 43 47 41 37 34 29 27 33 49 40 26 18 13 8 13 14 15 16 16 14 12 10 7
8 6 6 5 7 8 8 46 14 18 22 29 12 1 3 4 6 14 20 27 45 44 48 43 39 40 44 49 42 42 38 33 32 33 36 32 28 21 15 12 12 13 14 15 14 13 11 9 6
12 8 7 4 6 9 11 45 12 17 20 21 15 4 7 10 15 16 22 29 40 45 48 46 41 41 43 52 45 43 40 35 37 32 30 28 23 18 15 14 14 14 13 13 13 12 11 10 9
6 8 6 3 2 4 23 37 15 32 11 39 12 12 14 25 21 24 29 34 41 48 50 48 44 44 45 56 52 46 40 39 34 29 25 23 22 20 18 16 16 14 14 13 13 13 12 11 11
4 8 3 2 6 11 33 20 19 35 15 41 10 35 49 34 29 32 40 45 46 52 54 52 50 47 46 51 49 44 41 40 35 28 24 22 21 21 20 18 18 17 15 13 13 13 14 13 13
11 6 2 4 5 7 26 17 31 24 45 14 28 50 62 36 33 43 51 54 52 55 59 56 53 51 48 51 50 46 43 44 39 30 25 21 19 21 22 21 20 18 19 18 15 15 14 15 14
8 6 9 2 18 29 8 21 30 16 11 35 52 69 54 40 37 49 47 52 51 53 59 60 55 54 53 52 50 47 47 47 39 34 27 23 22 22 26 24 18 17 19 18 17 17 15 13 13
8 14 8 12 32 26 16 21 21 13 21 48 53 44 49 46 43 52 54 52 51 53 58 58 57 57 57 57 52 48 51 49 44 36 31 29 29 28 26 23 20 20 20 20 19 17 15 13 13
8 11 23 31 23 43 23 26 13 30 29 46 44 36 34 39 43 52 56 54 53 53 55 61 58 60 60 61 58 59 62 53 44 38 33 30 32 32 30 25 25 23 21 20 20 20 17 16 16
9 13 21 9 29 15 26 34 8 5 49 62 60 58 52 40 37 52 59 63 64 55 52 56 62 62 61 63 63 62 59 51 46 41 34 31 29 31 32 29 27 25 22 19 19 19 20 19 19
8 10 10 10 27 14 50 7 7 18 65 68 77 74 67 58 44 42 57 67 69 67 58 57 62 61 63 62 60 63 57 52 48 43 37 35 33 32 33 30 29 23 23 21 21 21 21 20 22
11 11 13 12 26 13 19 16 17 62 49 69 67 79 78 72 65 48 45 59 69 72 67 62 57 63 62 63 60 54 53 50 47 44 41 38 36 34 34 32 30 25 25 24 24 23 24 23 24
14 3 6 17 26 10 15 31 34 77 61 58 69 78 81 80 74 64 48 46 63 67 72 68 61 61 61 62 58 54 50 48 45 44 42 42 40 37 36 35 30 29 28 28 27 26 26 26 25
7 7 9 12 14 19 22 28 36 60 60 61 62 75 83 80 76 70 58 48 51 64 65 69 66 64 57 58 57 53 49 45 43 39 38 33 40 37 36 34 31 31 33 32 31 29 29 29 28
4 5 11 11 7 25 11 29 39 44 48 60 52 59 69 72 69 63 62 51 45 57 57 69 71 70 62 63 63 60 52 44 43 40 41 36 37 39 39 37 33 34 37 35 33 33 33 33 27
3 6 10 15 6 16 16 30 21 9 40 51 56 61 71 76 62 60 56 50 44 48 56 55 67 72 70 67 63 62 52 49 44 44 45 46 43 42 41 39 39 37 38 39 40 39 38 36 24
5 3 6 8 32 3 15 11 14 30 50 66 65 55 64 65 44 55 55 46 43 39 52 47 54 68 73 69 63 65 62 58 56 49 52 53 49 45 45 41 41 41 42 43 41 41 41 37 24
9 1 6 22 18 7 13 11 13 26 39 41 64 69 63 69 43 22 41 43 46 38 44 48 48 57 62 66 60 62 59 58 57 52 51 55 54 53 49 48 47 47 47 49 49 47 42 35 36
12 9 16 15 5 5 10 5 14 31 40 44 63 66 69 64 58 35 15 37 41 40 50 55 52 54 49 61 58 56 63 51 49 55 60 57 56 57 56 57 55 58 59 60 47 41 38 38 42
13 8 6 4 2 4 5 4 13 29 28 36 51 56 64 64 68 51 20 5 19 34 47 57 49 41 42 49 50 56 66 62 55 51 56 59 57 58 65 65 68 70 70 60 49 45 42 44 44
11 7 6 10 8 6 10 6 14 24 29 26 40 54 61 58 65 65 46 29 4 17 31 46 45 34 37 37 37 43 44 44 39 39 47 46 41 29 29 54 65 60 54 40 37 46 53 35 30
9 6 5 4 5 9 11 8 8 18 40 39 47 57 61 47 61 66 54 38 25 10 21 36 40 33 27 29 28 29 31 20 22 27 23 25 23 23 23 24 21 28 20 21 21 26 25 27 29
8 8 3 5 3 6 7 9 13 42 37 54 54 58 73 78 66 55 49 44 37 28 9 11 32 26 19 19 14 15 21 12 23 12 6 9 10 18 24 29 38 39 36 32 33 31 26 27 17
3 6 5 5 7 9 8 4 16 38 41 40 47 56 65 61 61 58 49 40 36 39 33 18 28 27 20 9 33 46 39 29 26 16 13 14 18 19 31 30 36 35 29 32 32 26 15 23 18
8 6 6 2 1 4 7 3 7 18 28 33 46 56 61 55 50 45 37 32 39 45 32 16 30 44 52 50 52 55 47 47 35 39 41 42 42 41 40 33 30 27 19 23 17 19 18 19 18
3 3 3 2 7 3 5 7 7 18 37 42 52 54 53 52 50 49 47 49 62 67 59 60 60 59 51 49 35 34 40 26 27 36 37 27 24 22 17 16 16 20 22 19 11 8 4 6 8
Wind_Direction_500mb
297 313 327 330 56 66 297 321 229 318 350 341 166 154 185 125 171 212 183 171 175 177 176 181 185 187 184 175 170 154 167 165 157 144 141 141 155 169 169 164 171 199 229 249 196 121 115 105 94
299 314 324 8 91 77 271 257 319 279 296 321 345 99 128 189 191 229 156 167 175 178 178 183 185 189 181 174 166 159 169 167 164 159 155 147 170 179 179 178 197 212 243 176 154 137 126 112 102
289 320 341 92 99 183 205 226 275 313 326 252 316 344 98 255 191 166 174 174 174 181 181 184 185 186 179 173 163 168 176 179 183 184 172 165 175 191 198 210 220 223 207 150 146 141 135 126 107
222 178 66 92 218 248 217 280 334 346 27 22 340 306 340 236 19 182 184 181 176 182 183 186 184 182 179 175 170 175 176 180 180 187 176 174 194 203 205 203 193 173 149 138 145 140 137 135 120
93 51 58 231 258 264 267 358 353 360 352 337 335 299 315 338 143 174 179 182 181 183 185 188 179 182 180 174 175 177 175 171 164 168 169 181 186 189 194 179 155 146 140 135 139 143 147 152 153
91 77 62 256 266 293 7 354 340 6 345 354 347 276 271 232 183 187 181 184 185 189 188 190 183 181 182 174 182 183 180 172 177 177 182 193 206 216 210 189 163 159 153 151 154 158 162 172 191
111 88 195 221 268 308 8 349 37 345 335 5 339 281 282 235 199 193 187 185 185 193 194 192 188 187 187 180 185 188 192 190 190 192 196 204 210 214 206 192 181 176 172 171 174 180 186 203 219
87 91 143 247 217 289 353 349 355 6 308 338 332 14 351 339 225 196 186 188 191 193 196 194 190 191 192 190 192 197 200 193 191 195 204 213 222 218 204 194 190 188 188 189 193 196 206 217 231
68 65 181 338 22 314 342 2 341 341 336 334 25 17 343 305 229 202 189 191 191 197 198 196 195 194 192 191 192 194 192 187 195 207 212 217 216 210 204 198 198 199 200 202 213 224 230 237 247
62 84 13 65 1 3 320 336 326 337 332 332 330 337 348 332 227 209 198 196 197 195 198 200 199 193 193 193 193 190 193 193 206 212 216 218 213 210 205 205 208 210 210 210 224 236 247 255 257
6 94 350 4 346 338 295 315 325 324 332 319 317 320 327 322 231 221 222 209 205 201 200 203 202 197 193 192 192 196 199 205 212 215 224 224 217 208 205 209 219 217 218 225 235 243 247 246 253
93 29 18 320 330 338 307 320 312 312 285 319 315 317 314 315 248 228 228 219 211 207 209 209 205 203 198 193 197 200 208 214 217 223 233 231 225 220 215 224 233 227 233 239 244 246 242 251 260
58 344 335 327 360 343 347 328 266 292 337 337 335 334 327 319 273 238 237 230 224 219 217 216 212 209 205 203 202 205 214 217 219 230 237 238 232 228 227 231 232 232 242 247 244 239 245 256 263
315 304 305 5 345 2 358 309 285 334 339 327 327 324 325 320 305 258 244 239 231 227 225 222 218 214 212 211 211 213 219 217 225 231 236 243 241 234 232 231 236 239 243 238 234 237 247 256 265
333 11 354 20 353 8 347 27 222 310 325 319 315 314 310 307 304 292 269 255 244 235 229 230 223 220 220 218 217 219 223 224 228 232 238 240 240 238 234 236 239 242 235 237 240 244 252 258 268
33 44 360 309 358 354 24 279 291 310 317 311 312 309 307 299 293 288 286 268 253 242 235 232 227 227 225 225 222 224 225 229 233 236 240 243 245 245 241 240 238 241 240 244 248 254 259 265 274
18 348 313 318 341 330 55 295 300 311 318 310 304 303 302 299 290 281 282 275 260 250 241 234 229 228 230 227 224 224 227 233 237 240 240 243 245 245 243 242 239 240 243 248 253 256 263 270 278
324 336 293 257 309 343 304 287 307 320 324 314 308 305 302 296 285 283 276 272 267 251 245 235 232 230 230 226 224 224 226 231 233 238 235 245 240 241 243 244 244 244 247 251 256 264 270 276 280
234 248 275 268 305 339 336 305 307 322 343 335 334 333 321 297 293 274 271 268 265 250 246 235 228 230 228 223 223 219 222 229 228 233 238 248 247 244 246 247 246 248 252 257 262 265 268 272 282
348 311 308 298 43 321 321 305 283 301 349 339 326 326 327 326 285 271 265 261 261 246 240 244 230 229 229 227 226 225 227 231 235 233 242 244 246 243 247 249 250 251 255 256 258 262 266 269 272
314 249 317 319 329 310 331 312 296 344 353 348 334 336 340 338 300 271 273 258 251 247 232 238 243 233 228 230 229 229 231 235 234 237 238 240 246 247 248 252 253 254 256 259 262 263 263 265 264
319 206 5 328 355 328 40 312 315 340 346 350 344 345 340 357 357 306 267 257 244 242 224 224 237 237 232 228 231 232 235 239 242 244 255 246 247 251 253 257 256 254 255 254 252 252 253 255 259
241 344 303 304 314 15 344 304 279 346 351 346 337 339 347 1 4 5 315 242 240 240 221 224 230 228 223 225 227 235 236 245 250 251 251 245 247 250 254 257 257 253 253 252 254 258 251 253 255
290 321 46 48 268 8 305 46 301 351 340 339 334 342 352 3 16 22 36 78 227 232 231 225 228 221 227 223 229 240 238 240 244 253 252 249 247 244 244 245 254 255 255 243 242 245 243 249 253
347 15 6 359 4 240 330 59 246 332 340 333 337 344 352 7 20 22 37 49 147 212 230 221 223 232 225 220 238 240 238 245 248 247 237 234 228 220 229 241 245 244 231 231 241 250 250 241 239
332 29 103 248 309 296 322 332 295 346 344 352 354 357 1 11 23 25 27 43 45 41 198 200 210 214 226 232 231 240 236 221 136 110 79 71 41 56 48 55 82 109 95 140 122 106 107 98 79
327 60 94 265 8 309 290 329 330 342 353 357 358 1 5 16 14 17 25 35 54 50 85 197 207 194 186 159 148 151 148 162 134 127 73 5 42 61 80 95 94 84 81 84 82 87 69 74 69
22 301 50 8 11 314 317 48 338 346 342 344 355 359 7 20 21 15 26 36 56 64 54 93 151 169 156 185 129 101 95 100 118 128 129 143 116 111 92 75 80 88 85 79 62 61 76 70 63
1 30 18 279 250 310 321 330 353 338 342 336 341 5 14 24 31 29 34 51 68 81 85 83 124 118 109 99 97 97 101 98 99 98 101 101 99 98 92 88 84 78 74 86 67 57 46 52 58
194 126 30 76 317 229 276 269 61 3 349 353 347 7 23 33 34 36 45 69 78 80 79 88 89 87 87 97 106 109 109 112 107 105 104 104 109 108 96 79 68 86 92 80 65 84 89 71 64
Wind_Speed_850mb
19 19 18 3 7 9 6 4 4 15 14 9 6 9 10 6 8 7 8 34 37 54 58 51 46 39 34 32 33 37 34 34 32 33 44 40 30 27 25 19 16 11 12 10 5 5 10 17 20
17 14 8 2 8 4 6 7 10 6 11 2 3 3 3 2 3 4 24 34 44 49 55 53 46 41 36 33 41 45 41 36 35 33 38 31 25 22 21 15 13 12 10 9 12 11 14 16 16
13 10 4 6 6 8 6 4 9 23 13 6 8 5 1 0 5 15 14 30 54 50 50 50 46 41 38 37 45 40 39 34 31 34 39 31 27 24 14 13 13 13 10 13 16 16 16 14 12
3 1 6 6 8 7 6 9 8 22 15 12 5 7 2 3 1 18 20 30 55 50 48 45 46 42 40 43 44 40 35 27 26 32 44 34 29 18 13 10 10 12 13 16 16 15 14 13 10
3 5 5 2 6 6 7 15 21 10 15 14 13 7 5 1 8 16 22 27 51 50 48 42 40 42 43 47 41 37 34 29 27 33 49 40 26 18 13 8 13 14 15 16 16 14 12 10 7
8 6 6 5 7 8 8 46 14 18 22 29 12 1 3 4 6 14 20 27 45 44 48 43 39 40 44 49 42 42 38 33 32 33 36 32 28 21 15 12 12 13 14 15 14 13 11 9 6
12 8 7 4 6 9 11 45 12 17 20 21 15 4 7 10 15 16 22 29 40 45 48 46 41 41 43 52 45 43 40 35 37 32 30 28 23 18 15 14 14 14 13 13 13 12 11 10 9
6 8 6 3 2 4 23 37 15 32 11 39 12 12 14 25 21 24 29 34 41 48 50 48 44 44 45 56 52 46 40 39 34 29 25 23 22 20 18 16 16 14 14 13 13 13 12 11 11
4 8 3 2 6 11 33 20 19 35 15 41 10 35 49 34 29 32 40 45 46 52 54 52 50 47 46 51 49 44 41 40 35 28 24 22 21 21 20 18 18 17 15 13 13 13 14 13 13
11 6 2 4 5 7 26 17 31 24 45 14 28 50 62 36 33 43 51 54 52 55 59 56 53 51 48 51 50 46 43 44 39 30 25 21 19 21 22 21 20 18 19 18 15 15 14 15 14
8 6 9 2 18 29 8 21 30 16 11 35 52 69 54 40 37 49 47 52 51 53 59 60 55 54 53 52 50 47 47 47 39 34 27 23 22 22 26 24 18 17 19 18 17 17 15 13 13
8 14 8 12 32 26 16 21 21 13 21 48 53 44 49 46 43 52 54 52 51 53 58 58 57 57 57 57 52 48 51 49 44 36 31 29 29 28 26 23 20 20 20 20 19 17 15 13 13
8 11 23 31 23 43 23 26 13 30 29 46 44 36 34 39 43 52 56 54 53 53 55 61 58 60 60 61 58 59 62 53 44 38 33 30 32 32 30 25 25 23 21 20 20 20 17 16 16
9 13 21 9 29 15 26 34 8 5 49 62 60 58 52 40 37 52 59 63 64 55 52 56 62 62 61 63 63 62 59 51 46 41 34 31 29 31 32 29 27 25 22 19 19 19 20 19 19
8 10 10 10 27 14 50 7 7 18 65 68 77 74 67 58 44 42 57 67 69 67 58 57 62 61 63 62 60 63 57 52 48 43 37 35 33 32 33 30 29 23 23 21 21 21 21 20 22
11 11 13 12 26 13 19 16 17 62 49 69 67 79 78 72 65 48 45 59 69 72 67 62 57 63 62 63 60 54 53 50 47 44 41 38 36 34 34 32 30 25 25 24 24 23 24 23 24
14 3 6 17 26 10 15 31 34 77 61 58 69 78 81 80 74 64 48 46 63 67 72 68 61 61 61 62 58 54 50 48 45 44 42 42 40 37 36 35 30 29 28 28 27 26 26 26 25
7 7 9 12 14 19 22 28 36 60 60 61 62 75 83 80 76 70 58 48 51 64 65 69 66 64 57 58 57 53 49 45 43 39 38 33 40 37 36 34 31 31 33 32 31 29 29 29 28
4 5 11 11 7 25 11 29 39 44 48 60 52 59 69 72 69 63 62 51 45 57 57 69 71 70 62 63 63 60 52 44 43 40 41 36 37 39 39 37 33 34 37 35 33 33 33 33 27
3 6 10 15 6 16 16 30 21 9 40 51 56 61 71 76 62 60 56 50 44 48 56 55 67 72 70 67 63 62 52 49 44 44 45 46 43 42 41 39 39 37 38 39 40 39 38 36 24
5 3 6 8 32 3 15 11 14 30 50 66 65 55 64 65 44 55 55 46 43 39 52 47 54 68 73 69 63 65 62 58 56 49 52 53 49 45 45 41 41 41 42 43 41 41 41 37 24
9 1 6 22 18 7 13 11 13 26 39 41 64 69 63 69 43 22 41 43 46 38 44 48 48 57 62 66 60 62 59 58 57 52 51 55 54 53 49 48 47 47 47 49 49 47 42 35 36
12 9 16 15 5 5 10 5 14 31 40 44 63 66 69 64 58 35 15 37 41 40 50 55 52 54 49 61 58 56 63 51 49 55 60 57 56 57 56 57 55 58 59 60 47 41 38 38 42
13 8 6 4 2 4 5 4 13 29 28 36 51 56 64 64 68 51 20 5 19 34 47 57 49 41 42 49 50 56 66 62 55 51 56 59 57 58 65 65 68 70 70 60 49 45 42 44 44
11 7 6 10 8 6 10 6 14 24 29 26 40 54 61 58 65 65 46 29 4 17 31 46 45 34 37 37 37 43 44 44 39 39 47 46 41 29 29 54 65 60 54 40 37 46 53 35 30
9 6 5 4 5 9 11 8 8 18 40 39 47 57 61 47 61 66 54 38 25 10 21 36 40 33 27 29 28 29 31 20 22 27 23 25 23 23 23 24 21 28 20 21 21 26 25 27 29
8 8 3 5 3 6 7 9 13 42 37 54 54 58 73 78 66 55 49 44 37 28 9 11 32 26 19 19 14 15 21 12 23 12 6 9 10 18 24 29 38 39 36 32 33 31 26 27 17
3 6 5 5 7 9 8 4 16 38 41 40 47 56 65 61 61 58 49 40 36 39 33 18 28 27 20 9 33 46 39 29 26 16 13 14 18 19 31 30 36 35 29 32 32 26 15 23 18
8 6 6 2 1 4 7 3 7 18 28 33 46 56 61 55 50 45 37 32 39 45 32 16 30 44 52 50 52 55 47 47 35 39 41 42 42 41 40 33 30 27 19 23 17 19 18 19 18
3 3 3 2 7 3 5 7 7 18 37 42 52 54 53 52 50 49 47 49 62 67 59 60 60 59 51 49 35 34 40 26 27 36 37 27 24 22 17 16 16 20 22 19 11 8 4 6 8
Wind_Direction_850mb
297 313 327 330 56 66 297 321 229 318 350 341 166 154 185 125 171 212 183 171 175 177 176 181 185 187 184 175 170 154 167 165 157 144 141 141 155 169 169 164 171 199 229 249 196 121 115 105 94
299 314 324 8 91 77 271 257 319 279 296 321 345 99 128 189 191 229 156 167 175 178 178 183 185 189 181 174 166 159 169 167 164 159 155 147 170 179 179 178 197 212 243 176 154 137 126 112 102
289 320 341 92 99 183 205 226 275 313 326 252 316 344 98 255 191 166 174 174 174 181 181 184 185 186 179 173 163 168 176 179 183 184 172 165 175 191 198 210 220 223 207 150 146 141 135 126 107
222 178 66 92 218 248 217 280 334 346 27 22 340 306 340 236 19 182 184 181 176 182 183 186 184 182 179 175 170 175 176 180 180 187 176 174 194 203 205 203 193 173 149 138 145 140 137 135 120
93 51 58 231 258 264 267 358 353 360 352 337 335 299 315 338 143 174 179 182 181 183 185 188 179 182 180 174 175 177 175 171 164 168 169 181 186 189 194 179 155 146 140 135 139 143 147 152 153
91 77 62 256 266 293 7 354 340 6 345 354 347 276 271 232 183 187 181 184 185 189 188 190 183 181 182 174 182 183 180 172 177 177 182 193 206 216 210 189 163 159 153 151 154 158 162 172 191
111 88 195 221 268 308 8 349 37 345 335 5 339 281 282 235 199 193 187 185 185 193 194 192 188 187 187 180 185 188 192 190 190 192 196 204 210 214 206 192 181 176 172 171 174 180 186 203 219
87 91 143 247 217 289 353 349 355 6 308 338 332 14 351 339 225 196 186 188 191 193 196 194 190 191 192 190 192 197 200 193 191 195 204 213 222 218 204 194 190 188 188 189 193 196 206 217 231
68 65 181 338 22 314 342 2 341 341 336 334 25 17 343 305 229 202 189 191 191 197 198 196 195 194 192 191 192 194 192 187 195 207 212 217 216 210 204 198 198 199 200 202 213 224 230 237 247
62 84 13 65 1 3 320 336 326 337 332 332 330 337 348 332 227 209 198 196 197 195 198 200 199 193 193 193 193 190 193 193 206 212 216 218 213 210 205 205 208 210 210 210 224 236 247 255 257
6 94 350 4 346 338 295 315 325 324 332 319 317 320 327 322 231 221 222 209 205 201 200 203 202 197 193 192 192 196 199 205 212 215 224 224 217 208 205 209 219 217 218 225 235 243 247 246 253
93 29 18 320 330 338 307 320 312 312 285 319 315 317 314 315 248 228 228 219 211 207 209 209 205 203 198 193 197 200 208 214 217 223 233 231 225 220 215 224 233 227 233 239 244 246 242 251 260
58 344 335 327 360 343 347 328 266 292 337 337 335 334 327 319 273 238 237 230 224 219 217 216 212 209 205 203 202 205 214 217 219 230 237 238 232 228 227 231 232 232 242 247 244 239 245 256 263
315 304 305 5 345 2 358 309 285 334 339 327 327 324 325 320 305 258 244 239 231 227 225 222 218 214 212 211 211 213 219 217 225 231 236 243 241 234 232 231 236 239 243 238 234 237 247 256 265
333 11 354 20 353 8 347 27 222 310 325 319 315 314 310 307 304 292 269 255 244 235 229 230 223 220 220 218 217 219 223 224 228 232 238 240 240 238 234 236 239 242 235 237 240 244 252 258 268
33 44 360 309 358 354 24 279 291 310 317 311 312 309 307 299 293 288 286 268 253 242 235 232 227 227 225 225 222 224 225 229 233 236 240 243 245 245 241 240 238 241 240 244 248 254 259 265 274
18 348 313 318 341 330 55 295 300 311 318 310 304 303 302 299 290 281 282 275 260 250 241 234 229 228 230 227 224 224 227 233 237 240 240 243 245 245 243 242 239 240 243 248 253 256 263 270 278
324 336 293 257 309 343 304 287 307 320 324 314 308 305 302 296 285 283 276 272 267 251 245 235 232 230 230 226 224 224 226 231 233 238 235 245 240 241 243 244 244 244 247 251 256 264 270 276 280
234 248 275 268 305 339 336 305 307 322 343 335 334 333 321 297 293 274 271 268 265 250 246 235 228 230 228 223 223 219 222 229 228 233 238 248 247 244 246 247 246 248 252 257 262 265 268 272 282
348 311 308 298 43 321 321 305 283 301 349 339 326 326 327 326 285 271 265 261 261 246 240 244 230 229 229 227 226 225 227 231 235 233 242 244 246 243 247 249 250 251 255 256 258 262 266 269 272
314 249 317 319 329 310 331 312 296 344 353 348 334 336 340 338 300 271 273 258 251 247 232 238 243 233 228 230 229 229 231 235 234 237 238 240 246 247 248 252 253 254 256 259 262 263 263 265 264
319 206 5 328 355 328 40 312 315 340 346 350 344 345 340 357 357 306 267 257 244 242 224 224 237 237 232 228 231 232 235 239 242 244 255 246 247 251 253 257 256 254 255 254 252 252 253 255 259
241 344 303 304 314 15 344 304 279 346 351 346 337 339 347 1 4 5 315 242 240 240 221 224 230 228 223 225 227 235 236 245 250 251 251 245 247 250 254 257 257 253 253 252 254 258 251 253 255
290 321 46 48 268 8 305 46 301 351 340 339 334 342 352 3 16 22 36 78 227 232 231 225 228 221 227 223 229 240 238 240 244 253 252 249 247 244 244 245 254 255 255 243 242 245 243 249 253
347 15 6 359 4 240 330 59 246 332 340 333 337 344 352 7 20 22 37 49 147 212 230 221 223 232 225 220 238 240 238 245 248 247 237 234 228 220 229 241 245 244 231 231 241 250 250 241 239
332 29 103 248 309 296 322 332 295 346 344 352 354 357 1 11 23 25 27 43 45 41 198 200 210 214 226 232 231 240 236 221 136 110 79 71 41 56 48 55 82 109 95 140 122 106 107 98 79
327 60 94 265 8 309 290 329 330 342 353 357 358 1 5 16 14 17 25 35 54 50 85 197 207 194 186 159 148 151 148 162 134 127 73 5 42 61 80 95 94 84 81 84 82 87 69 74 69
22 301 50 8 11 314 317 48 338 346 342 344 355 359 7 20 21 15 26 36 56 64 54 93 151 169 156 185 129 101 95 100 118 128 129 143 116 111 92 75 80 88 85 79 62 61 76 70 63
1 30 18 279 250 310 321 330 353 338 342 336 341 5 14 24 31 29 34 51 68 81 85 83 124 118 109 99 97 97 101 98 99 98 101 101 99 98 92 88 84 78 74 86 67 57 46 52 58
194 126 30 76 317 229 276 269 61 3 349 353 347 7 23 33 34 36 45 69 78 80 79 88 89 87 87 97 106 109 109 112 107 105 104 104 109 108 96 79 68 86 92 80 65 84 89 71 64